www.pogodaiklimat.ru

Погода и климат >> Архив погоды >> Австралия >> Западная Австралия >> Уорбертон


ПОГОДА в Уорбертоне

  • Прогноз погоды в Уорбертоне
  • Монитор погоды в Уорбертоне

АРХИВ ПОГОДЫ в Уорбертоне

Время (UTC), дата Ветер
(напр.,м/с)
 
Видим.   Явления Облачность Т
(С)
Тd
(С)
f
(%)
Тe
(С)
Тes
(С)
Комфортность P
(гПа)
Po
(гПа)
Тmin
(С)
Tmax
(С)
R
(мм)
R24
(мм)
S
(см)
22 17.03 Ю 3 н/о н/о +25.6 +14.1 49 +28 +28 жарко 1011.3 960.3
01 18.03 С 1 н/о н/о +30.9 +13.2 34 +32 +32 жарко 1012.8 961.7 +24.0
04 18.03 СВ 4 н/о н/о +35.2 +0.3 11 +32 +32 жарко 1010.1 959.2
07 18.03 З 6 н/о н/о +33.4 +4.2 16 +31 +31 жарко 1009.4 958.5
10 18.03 Ю 6 н/о н/о +31.0 +7.5 23 +30 +30 жарко 1010.1 959.2
13 18.03 Ю 6 н/о н/о +28.3 +13.8 41 +30 +30 жарко 1011.8 960.8 +36.5
16 18.03 ЮВ 7 н/о н/о +26.4 +14.5 48 +29 +29 жарко 1010.8 959.8
19 18.03 ЮВ 6 н/о н/о +26.1 +13.2 45 +28 +28 жарко 1010.4 959.5
22 18.03 В 5 н/о н/о +26.0 +12.1 42 +27 +27 жарко 1011.2 960.2
01 19.03 В 6 н/о н/о +30.4 +9.3 27 +30 +30 жарко 1011.7 960.7 +25.9
04 19.03 С 7 н/о н/о +39.0 +1.9 10 +35 +35 очень
жарко
1008.7 957.8
07 19.03 С 7 н/о н/о +39.7 +0.9 9 +36 +36 очень
жарко
1006.2 955.5
10 19.03 С 3 н/о н/о +37.2 +0.5 10 +34 +34 очень
жарко
1007.0 956.2
13 19.03 СВ 3 н/о н/о +32.9 +0.9 13 +30 +30 жарко 1008.4 957.6 +40.4
16 19.03 С 3 н/о н/о +29.8 +2.9 18 +28 +28 жарко 1007.9 957.1
19 19.03 ЮВ 4 н/о н/о +28.5 +4.7 22 +27 +27 жарко 1007.7 956.9
22 19.03 СВ 6 н/о н/о +28.5 +4.7 22 +27 +27 жарко 1009.2 958.3
01 20.03 СВ 8 н/о н/о +36.5 +3.7 13 +33 +33 жарко 1010.8 959.8 +27.2
04 20.03 СВ 4 н/о н/о +40.3 +1.4 9 +37 +37 очень
жарко
1008.6 957.7
07 20.03 С 5 н/о н/о +40.1 +1.2 9 +36 +36 очень
жарко
1006.9 956.1
10 20.03 штиль 0 н/о н/о +37.3 +0.6 10 +34 +34 очень
жарко
1007.3 956.5
13 20.03 СВ 2 н/о н/о +32.4 +1.5 14 +29 +29 жарко 1008.9 958.0 +42.1
16 20.03 СВ 3 н/о н/о +30.5 +2.7 17 +28 +28 жарко 1007.5 956.7
19 20.03 СВ 4 н/о н/о +29.3 +3.3 19 +27 +27 жарко 1006.8 956.0
22 20.03 С 6 н/о н/о +30.1 +4.7 20 +28 +28 жарко 1008.2 957.4
01 21.03 С 9 н/о н/о +36.6 +4.8 14 +34 +34 очень
жарко
1009.5 958.6 +28.9
04 21.03 С 8 н/о н/о +40.1 +2.7 10 +37 +37 очень
жарко
1008.0 957.2
07 21.03 С 5 н/о н/о +41.9 +2.6 9 +38 +38 очень
жарко
1005.5 954.8
10 21.03 С 1 н/о н/о +38.7 +1.6 10 +35 +35 очень
жарко
1005.9 955.2
13 21.03 штиль 0 н/о н/о +31.7 +2.8 16 +29 +29 жарко 1006.7 955.9 +42.7
16 21.03 С 2 н/о н/о +30.6 +2.8 17 +28 +28 жарко 1005.8 955.1
22 21.03 СЗ 2 н/о н/о +27.5 +5.1 24 +26 +26 жарко 1007.8 957.0
01 22.03 С 9 н/о н/о +36.3 +4.6 14 +33 +33 жарко 1008.3 957.5 +26.8
04 22.03 С 9 н/о н/о +41.4 +3.7 10 +38 +38 очень
жарко
1005.5 954.8
07 22.03 Ю 9 н/о н/о +38.1 +7.9 16 +36 +36 очень
жарко
1004.6 953.9
10 22.03 Ю 8 н/о н/о +33.6 +9.6 23 +33 +33 жарко 1006.7 955.9
13 22.03 Ю 8 н/о н/о +31.3 +10.1 27 +31 +31 жарко 1008.8 957.9 +42.8
16 22.03 ЮВ 5 н/о н/о +29.5 +9.6 29 +29 +29 жарко 1008.1 957.3
19 22.03 ЮВ 4 н/о н/о +28.0 +9.8 32 +28 +28 жарко 1007.1 956.3
22 22.03 Ю 3 н/о н/о +27.1 +9.5 33 +27 +27 жарко 1008.1 957.3
01 23.03 Ю 7 н/о н/о +32.8 +9.6 24 +32 +32 жарко 1009.3 958.4 +26.7
04 23.03 ЮВ 8 н/о н/о +35.7 +10.0 21 +35 +35 очень
жарко
1007.6 956.8
07 23.03 Ю 7 н/о н/о +35.5 +10.5 22 +35 +35 очень
жарко
1006.4 955.7
10 23.03 Ю 8 н/о н/о +32.3 +10.9 27 +32 +32 жарко 1007.1 956.3
13 23.03 ЮВ 7 н/о н/о +28.2 +12.9 39 +30 +30 жарко 1008.9 958.0 +37.3
16 23.03 ЮВ 7 н/о н/о +26.5 +13.9 46 +29 +29 жарко 1007.6 956.8
19 23.03 Ю 4 н/о н/о +25.8 +13.6 47 +28 +28 жарко 1006.9 956.1
22 23.03 ЮВ 4 н/о н/о +25.1 +13.3 48 +27 +27 жарко 1008.4 957.6
01 24.03 ЮВ 5 н/о н/о +27.8 +13.0 40 +29 +29 жарко 1009.6 958.7 +25.1
04 24.03 ЮВ 6 н/о н/о +32.5 +13.2 31 +33 +33 жарко 1008.0 957.2
07 24.03 ЮВ 7 н/о н/о +31.6 +13.4 33 +33 +33 жарко 1006.8 956.0
10 24.03 ЮВ 7 н/о н/о +29.5 +12.4 35 +31 +31 жарко 1007.6 956.8
13 24.03 ЮВ 8 н/о н/о +26.8 +12.8 42 +28 +28 жарко 1009.6 958.7 +34.5
16 24.03 ЮВ 9 н/о н/о +25.8 +14.0 48 +28 +28 жарко 1009.7 958.8
19 24.03 ЮВ 7 н/о н/о +24.3 +11.9 46 +26 +26 жарко 1010.0 959.1
22 24.03 ЮВ 8 н/о н/о +20.9 +10.1 50 +22 +22 комфорт 1013.1 962.0

 

Местоположение метеостанции Уорбертон (Западная Австралия, Австралия): широта -26.13 долгота 126.58 высота над уровнем моря 460 м.

В архиве по умолчанию представлена погода в Уорбертоне за последнюю неделю. Архивные данные за месяц целиком и за предыдущие месяцы, начиная с января 2011 года, Вы можете получить, выбрав интересующий диапазон дат из раскрывающегося списка и нажав кнопку "Ввод!".


*Определитесь, кто Вы:
робот инопланетянин человек

Внимание! Время в таблицах - всемирное. Для получения местного времени необходимо прибавить поправку, которая равна 8 ч.

Смотрите также архив погоды в соседних городах и на ближайших метеорологических станциях:

Погода в Джайлсе (Западная Австралия, Австралия) (212 км)
Погода в Кинторе (Северная территория, Австралия) (425 км)
Погода в Юларе (Северная территория, Австралия) (453 км)
Погода в Лавертоне (Западная Австралия, Австралия) (496 км)
Погода в Форресте (Западная Австралия, Австралия) (544 км)
Погода в Эрнабелле (Южная Австралия, Австралия) (559 км)
Погода в Леоноре (Западная Австралия, Австралия) (602 км)
Погода в Леинстере (Западная Австралия, Австралия) (613 км)
Погода в Евкле (Западная Австралия, Австралия) (657 км)
Погода в Телфере (Западная Австралия, Австралия) (663 км)

Пояснения к столбцам:

Ветер - указаны скорость ветра в м/с - средняя за 10 мин, порывы в срок и между сроками (в фигурных скобках) и направление, откуда дует ветер: С - северный, СВ - северо-восточный, В - восточный, ЮВ - юго-восточный, Ю - южный, ЮЗ - юго-западный, З - западный, СЗ - северо-западный.
Видимость - горизонтальная дальность видимости в метрах или километрах. При видимости от 1 до 10 км при отсутствии осадков обычно наблюдается дымка, при ухудшении видимости до 1 км и менее - туман. В сухую погоду видимость может ухудшаться дымом, пылью или мглою.
Явления - указаны атмосферные явления, наблюдавшиеся в срок или в последний час перед сроком; фигурными скобками обозначены явления, наблюдавшиеся между сроками (за 1-3 часа до срока); квадратными скобками обозначены град или гололедные отложения с указанием их диаметра в мм.
Облачность - указаны через наклонную черту общая и нижняя облачность в баллах и высота нижней границы облаков в метрах; квадратными скобками обозначены формы облаков: Ci - перистые, Cs - перисто-слоистые, Cc - перисто-кучевые, Ac - высококучевые, As - высокослоистые, Sc - слоисто-кучевые, Ns - слоисто-дождевые, Cu - кучевые, Cb - кучево-дождевые. Подробнее классификацию облаков см. в Атласе облаков (PDF).
T - Температура воздуха - температура, измеренная на высоте 2 м над землей.
Td - Температура точки росы - температура, при понижении до которой содержащийся в воздухе водяной пар достигнет насыщения.
f - Относительная влажность воздуха - влажноcть воздуха, измеренная на высоте 2 м над землей.
Te - Эффективная температура - температура, которую ощущает одетый по сезону человек в тени. Характеристика душности погоды. При расчете учитывается влияние влажности воздуха и скорости ветра на теплоощущения человека.
Tes - Эффективная температура на солнце - температура, которую ощущает человек, с поправкой на солнечный нагрев. Характеристика знойности погоды. Зависит от высоты солнца над горизонтом, облачности и скорости ветра. Ночью, в пасмурную погоду, а также при ветре 12 м/с и более поправка равна нулю.
P - Атмосферное давление - приведенное к уровню моря атмосферное давление.
Po - Атмосферное давление - измеренное на уровне метеостанции атмосферное давление.
Tmin - Минимальная температура - минимум температуры воздуха на высоте 2 м над землей.
Tmax - Максимальная температура - максимум температуры воздуха на высоте 2 м над землей.
R - Количество осадков - Количество выпавших осадков за период времени, мм. При наведении курсора мыши на число - период времени, за который выпало указанное количество осадков.
R24 - Количество осадков - Количество выпавших осадков за 24 часа, мм.
S - Снежный покров - Высота снежного покрова, см. При наведении курсора мыши на число - состояние снежного покрова и степень покрытия местности в баллах.